Starlink 33762

operational
NORAD ID: 63442 Int'l Des: 2025-069 Owner: SPXS Country: US Constellation: starlink
LEOCIRCULAR

Starlink 33762について

説明を読み込み中...

リアルタイム位置

3D地球を読み込み中...

次回通過

高度履歴

Altitude vs Time

uPlot chart will show altitude changes over time

軌道要素

1 63442U 25069K 25305.60661376 .00037048 00000-0 12561-2 0 9990
2 63442 53.1605 17.4856 0001277 93.5772 266.5375 15.30216733 33799
Epoch: Nov 1, 2025 • Age: 27 hours

現在のステータス

高度 475.3 km
速度 7.63 km/s
衛星直下点 23.02°N, 88.53°E
打ち上げ日 Apr 4, 2025
運用期間 0.5 years
タイプ internet

技術仕様

分類 Payload
質量 575.00 kg
乾燥質量 530.00 kg
総質量 575.00 kg
長さ 0.30 m
直径 4.10 m
スパン 29.00 m
形状 Box + pan
製造者 SPXS
バスタイプ Starlink V2MO
フェーズステータス In Orbit
所有者/国 SPXS/US

大規模コンステレーション

Loading constellations...